Location: Santa Cristina
(46.5667°N, 11.7167°E)
Time: 06:53:58
(UTC+00:00)

USA 81 - Pass Details

Date: 21 April 2021
Orbit: 785 x 788 km, 85.0° (Epoch: 26 April)

Event Time Altitude Azimuth Distance (km) Brightness Sun altitude
Rises 02:05:28 0° 354° (N) 3,291 7.8 -19.8°
Reaches altitude 10° 02:07:50 10° 354° (N) 2,358 7.0 -19.5°
Maximum altitude 02:13:08 90° 56° (NE) 794 4.0 -18.9°
Enters shadow 02:17:19 17° 176° (S) 1,919 5.7 -18.3°
